SCP
0 0 0 0 0 0 0 0 0 0 0 0 0 0 0 0 0 0 0 0 0 0 0 0 0 0 0 0 0 0 0 0 0 0 0 0 0 0 0 0 0 0 0
0 0 0 0 0 0 0 0 0 0 0 0 0 0 0 0 0 0 0 0 0 0 0 0 0 0 0 0 0 0 0 -0 0 0 0 0 0 0 0 0 0 0 0
0 0 0 0 0 0 0 0 0 0 0 0 0 0 0 0 0 0 0 0 0 0 0 0 0 0 0 0 0 0 -0 -0 0 0 0 -0 0 0 0 0 0 0 0
0 0 0 0 0 0 0 0 0 0 0 0 0 0 0 0 0 0 0 0 0 0 0 0 0 0 0 0 0 0 -0 0 0 0 -0 -0 -0 0 0 0 0 0 0
0 0 0 0 0 0 0 0 0 0 0 0 0 0 0 0 0 0 0 0 0 0 0 0 0 0 0 0 -0 -0 -0 0 0 0 -0 -0 0 0 0 0 0 0 0
0 0 0 0 1 0 0 0 0 0 0 0 0 0 0 0 0 0 0 0 0 0 0 0 0 0 0 -0 -0 -0 -0 0 0 0 0 0 0 0 0 0 0 0 0
1 0 0 1 1 0 0 0 0 0 0 0 0 0 0 0 0 0 0 0 0 0 0 0 0 0 0 -0 -0 -0 -0 0 0 0 0 0 0 0 0 0 0 0 0
1 1 1 1 1 0 0 0 0 0 0 0 0 0 0 0 0 0 0 0 0 0 0 0 0 0 0 -0 -0 -0 -0 0 0 0 0 0 0 0 0 0 0 0 0
1 1 1 1 0 0 0 0 0 0 0 0 0 0 0 0 0 0 0 0 0 0 0 0 0 0 0 0 -0 -0 -0 0 0 0 0 0 0 0 0 0 0 0 0
1 1 1 1 0 0 0 0 0 0 0 0 0 0 0 0 0 0 0 0 0 0 0 0 0 0 0 0 0 0 0 0 0 0 0 0 0 0 0 0 0 0 0
1 1 1 1 0 0 0 0 0 0 0 0 0 0 0 0 0 0 0 0 0 0 0 0 0 0 0 0 0 0 0 0 0 0 0 0 0 0 0 0 0 0 0
0 0 0 0 0 0 0 0 0 0 0 0 0 0 0 0 0 0 0 0 0 0 0 0 0 0 0 0 0 0 0 0 0 0 0 0 0 0 0 0 0 0 0
0 0 0 0 0 0 0 0 0 0 0 0 0 0 0 0 0 0 0 0 0 0 0 0 0 0 0 0 0 0 0 0 0 0 0 0 0 0 0 0 0 0 0
0 0 0 0 0 0 0 0 0 0 0 0 0 0 0 0 0 0 0 0 0 0 0 0 0 0 0 0 0 0 0 0 0 0 0 0 0 0 0 0 0 0 0
0 0 0 0 0 0 0 0 0 0 0 0 0 0 0 0 0 0 0 0 0 0 0 0 0 0 0 0 0 0 0 0 0 0 0 0 0 0 0 0 0 0 0
0 0 0 0 0 0 0 0 0 0 0 0 0 0 0 0 0 0 0 0 0 0 0 0 0 0 0 0 0 0 0 0 0 0 0 0 0 0 0 0 0 0 0
0 0 0 0 0 0 0 0 0 0 0 0 0 0 0 0 0 0 0 0 0 0 0 0 0 0 0 0 0 0 0 0 0 0 0 0 0 0 0 0 0 0 0
0 0 0 0 0 0 0 0 0 0 0 0 0 0 0 0 0 0 0 0 0 0 0 0 0 0 0 0 0 0 0 0 0 0 0 0 0 0 0 0 0 0 0
0 0 0 0 0 0 0 0 0 0 0 0 0 0 0 0 0 0 0 0 0 0 0 0 0 0 0 0 0 0 0 0 0 0 0 0 0 0 0 0 0 0 0
0 0 0 0 0 0 0 0 0 0 0 0 0 0 0 0 0 0 0 0 0 0 0 0 0 0 0 0 0 0 0 0 0 0 0 0 0 0 0 0 0 0 0
0 0 0 0 0 0 0 0 0 0 0 0 0 0 0 0 0 0 0 0 0 0 0 0 0 0 0 0 0 0 0 0 0 0 0 0 0 0 0 0 0 0 0
0 0 0 0 0 0 0 0 0 0 0 0 0 0 0 0 0 0 0 0 0 0 0 0 0 0 0 0 0 0 0 0 0 0 0 0 0 0 0 0 0 0 0
0 0 0 0 0 0 0 0 0 0 0 0 0 0 0 0 0 0 0 0 0 0 0 0 0 0 0 0 0 0 0 0 0 0 0 0 0 0 0 0 0 0 0
0 0 0 0 0 0 0 0 0 0 0 0 0 0 0 0 0 0 0 0 0 0 0 0 0 0 0 0 0 0 0 0 0 0 0 0 0 0 0 0 0 0 0
0 0 0 0 0 0 0 0 0 0 0 0 0 -0 -0 0 0 0 0 0 0 0 0 0 0 0 0 0 0 0 0 0 0 0 0 0 0 0 0 0 0 0 0
0 0 0 0 0 0 0 0 0 0 0 0 -0 -0 -0 0 0 0 0 0 0 0 0 0 0 0 0 0 0 0 0 0 0 0 0 0 0 0 0 0 0 0 0
Wind_Speed
7 8 15 17 17 17 18 18 18 17 17 17 16 16 15 14 14 13 12 11 11 10 10 10 11 11 11 11 11 11 11 11 11 12 12 13 13 13 13 14 13 11 15
11 10 16 17 17 17 17 17 17 17 17 16 16 15 14 13 13 12 11 11 10 10 10 10 11 11 11 11 11 11 11 10 11 11 12 12 12 12 13 13 13 9 14
13 10 14 16 16 16 17 16 16 16 16 15 15 14 13 13 12 11 11 10 10 10 10 10 11 11 11 11 10 10 10 10 10 11 11 7 9 12 12 13 13 13 13
13 9 11 17 16 16 16 16 15 15 15 14 14 13 12 11 11 10 10 10 9 9 10 10 10 10 10 10 10 9 9 9 10 10 6 5 7 11 12 12 13 12 13
11 8 12 18 17 16 15 15 14 14 14 13 13 12 11 10 10 10 9 9 8 9 9 9 9 9 9 9 8 8 8 8 9 8 5 4 5 10 12 12 12 12 12
9 8 11 18 16 16 15 14 14 14 13 12 12 11 10 9 9 9 8 8 7 8 8 8 8 8 7 7 7 6 6 7 8 5 5 5 5 10 12 12 12 12 11
9 7 10 17 16 15 15 14 14 13 13 12 11 10 9 9 8 8 8 7 7 7 6 6 6 6 6 5 5 4 5 7 6 5 5 5 6 10 11 11 11 11 11
9 7 8 15 16 15 15 14 13 13 12 11 11 10 9 8 7 7 7 6 6 6 5 5 5 4 4 3 3 3 3 6 5 5 5 5 7 9 11 11 11 11 11
8 7 6 7 10 14 14 14 13 12 12 11 10 9 9 8 7 6 6 5 5 5 5 4 3 3 2 2 1 2 2 4 4 3 5 4 8 10 11 11 11 11 11
6 6 5 5 5 6 7 12 13 12 11 11 10 9 8 8 7 6 5 5 5 4 4 4 3 2 2 1 0 1 2 3 2 3 2 4 9 11 12 12 12 12 12
7 5 5 5 5 5 5 8 10 11 10 9 7 9 6 2 2 2 4 5 5 5 4 4 3 2 1 1 1 0 1 1 2 1 2 6 10 11 12 12 12 12 12
9 7 5 5 5 5 5 4 3 3 4 3 2 3 2 2 1 1 1 3 4 4 4 3 3 2 1 1 2 2 0 1 1 2 3 7 9 11 12 13 13 13 12
7 7 6 5 5 4 3 3 2 2 2 2 3 3 2 2 1 0 1 1 1 1 0 0 0 0 0 0 1 0 1 1 1 1 2 6 8 10 12 13 13 13 13
6 6 6 5 5 4 3 3 3 2 2 2 2 3 2 1 1 1 1 1 1 1 1 1 0 0 1 1 1 1 1 1 1 1 2 5 6 9 10 12 13 13 13
6 5 5 6 5 4 3 3 3 3 3 3 2 2 3 2 1 1 1 1 1 1 1 1 0 1 1 1 1 1 2 2 2 2 2 6 6 8 10 11 12 12 13
6 5 5 5 5 4 3 3 3 3 3 3 3 3 3 2 2 2 1 1 1 1 1 1 1 0 0 1 1 1 2 2 3 3 3 4 7 8 9 10 11 12 13
6 6 5 5 5 5 4 3 3 3 3 3 3 3 3 3 3 2 2 1 1 1 2 2 2 1 1 1 2 2 2 2 3 3 3 3 3 6 8 9 10 11 13
6 6 6 6 6 5 4 4 3 3 4 3 3 3 3 3 4 3 2 1 1 2 2 2 2 2 2 2 2 2 2 2 3 3 2 3 3 3 5 9 10 10 12
7 8 7 6 6 5 4 4 3 3 3 3 3 2 3 3 4 3 2 2 2 3 2 2 2 1 1 2 2 1 2 2 2 2 2 2 3 3 3 5 9 10 13
6 6 7 7 6 5 4 4 3 3 2 2 2 2 3 3 3 3 3 3 3 3 2 2 2 2 1 2 2 2 2 2 2 2 2 2 2 2 3 3 4 5 9
6 6 7 7 6 5 4 3 3 2 2 2 2 2 3 3 3 3 3 3 2 3 2 2 2 3 3 2 2 3 3 3 2 2 2 2 3 3 2 2 2 3 3
7 7 6 7 7 6 4 3 3 3 2 2 1 1 2 3 3 3 3 2 2 2 3 2 2 2 2 3 1 2 3 4 3 3 3 3 4 3 4 3 2 2 3
8 8 8 7 6 6 5 4 4 4 3 2 1 1 1 2 2 3 4 3 2 2 2 2 2 2 1 2 2 2 2 1 3 3 3 3 4 3 4 4 3 3 3
8 7 7 6 6 6 6 6 6 4 3 3 2 1 1 1 2 3 3 3 3 2 2 1 2 2 2 1 1 1 1 1 0 3 3 3 4 4 5 4 4 4 3
7 7 6 6 5 5 6 6 6 4 3 2 2 2 1 0 1 2 3 3 3 2 2 2 2 2 1 1 1 0 1 1 1 1 3 4 4 3 3 4 3 3 4
6 6 6 6 5 5 6 6 6 6 5 4 3 3 1 0 0 1 3 3 3 2 2 2 2 2 2 1 1 1 1 1 1 1 2 3 3 3 3 3 2 3 3
Wind_Direction
153 155 150 144 137 131 127 123 121 120 119 119 120 121 123 124 125 124 124 122 119 115 111 107 105 103 102 103 104 104 106 108 111 112 113 114 113 113 113 111 109 108 110
145 152 152 147 142 136 130 127 125 124 123 123 123 124 126 126 126 125 124 121 119 117 113 110 108 107 107 106 107 108 111 113 116 117 117 116 116 115 114 114 113 115 116
141 151 152 149 144 139 134 132 130 128 127 126 126 127 128 129 127 126 124 122 121 119 115 111 110 110 110 110 110 111 111 111 114 116 112 110 118 121 119 119 119 117 117
141 145 150 151 147 142 139 136 135 133 132 132 132 132 133 132 130 128 126 123 122 120 118 116 115 114 113 111 111 112 113 115 114 113 104 114 123 126 124 121 121 121 119
139 143 157 153 150 146 143 141 139 139 139 138 138 138 137 136 135 132 130 127 126 123 121 119 117 115 115 114 113 112 113 120 119 112 107 104 114 132 129 127 126 125 123
138 145 159 154 152 149 148 146 145 145 146 145 144 145 144 142 141 140 136 133 129 127 124 123 121 118 117 117 114 109 110 121 118 120 123 124 130 139 137 135 132 130 128
139 146 157 156 155 154 152 151 150 150 150 149 150 151 151 150 147 145 143 140 135 132 131 127 125 122 121 118 110 98 101 118 118 130 138 141 147 148 145 142 139 137 134
142 143 151 158 158 157 157 156 155 155 154 154 156 158 158 158 157 152 152 153 151 147 144 139 135 131 124 115 100 79 88 116 122 135 146 154 160 156 154 152 148 145 143
137 135 140 153 159 161 160 160 159 159 159 161 164 165 165 167 166 165 168 169 167 163 163 158 154 145 136 121 85 60 79 119 125 143 159 165 172 168 165 162 160 156 153
132 131 132 136 141 149 159 164 163 165 166 167 170 171 173 177 176 177 175 186 187 189 188 183 183 172 167 165 55 46 78 104 132 149 154 181 184 181 176 173 170 166 163
144 135 134 136 136 137 149 167 166 167 170 171 175 178 173 154 150 178 196 203 205 206 205 203 207 200 213 276 287 310 73 119 161 174 180 199 195 194 189 183 180 175 173
161 158 146 142 142 141 158 146 138 142 148 146 141 148 133 125 145 175 245 220 218 218 219 213 224 247 278 314 314 321 15 183 183 204 210 210 204 204 198 192 188 183 182
164 163 156 153 150 151 144 137 130 121 126 130 136 131 120 109 77 74 46 334 335 275 352 285 353 22 26 287 309 310 245 221 214 225 229 224 212 209 205 198 194 190 188
161 168 155 158 158 163 153 148 141 135 135 136 140 136 126 115 92 69 69 35 37 48 77 70 49 357 2 325 293 275 236 229 236 235 240 242 229 218 214 205 199 197 195
164 169 163 165 171 163 150 153 147 144 141 137 126 125 127 125 126 104 76 51 34 41 71 78 33 355 8 333 306 275 269 260 251 249 256 258 246 228 221 215 209 206 204
164 168 162 162 165 155 152 156 147 142 134 128 127 129 120 120 125 115 93 76 64 59 80 97 93 57 354 334 309 294 269 264 256 257 259 269 266 250 232 222 219 217 215
167 165 161 159 152 152 153 155 142 139 133 130 133 129 128 125 123 111 99 83 59 55 78 80 59 49 24 353 317 306 288 276 270 262 261 261 266 263 250 238 233 229 226
161 161 165 166 156 153 147 144 139 136 131 131 127 125 127 125 123 112 102 78 61 65 67 74 55 44 19 358 327 313 308 294 286 275 263 257 255 260 257 250 246 241 237
167 161 158 152 152 148 140 130 124 121 123 122 118 121 125 127 127 119 109 90 84 75 64 73 64 59 22 347 313 303 320 310 303 300 294 279 261 253 251 257 255 252 247
158 153 151 149 147 137 124 109 98 97 100 104 116 129 130 125 125 114 100 89 86 82 67 64 69 51 33 338 327 338 339 339 339 345 332 325 306 280 259 256 258 263 260
149 151 155 153 152 145 138 135 130 134 127 118 139 150 143 136 132 117 107 97 91 90 83 77 84 57 27 359 14 352 346 359 10 21 6 9 2 340 324 285 263 254 263
161 164 164 163 161 161 152 139 131 125 122 119 120 132 146 150 152 140 131 125 114 102 85 68 79 79 28 22 55 49 1 352 353 7 5 22 15 6 360 342 307 283 270
169 172 174 171 164 161 145 119 99 82 73 79 104 153 169 168 170 150 147 138 131 125 122 106 97 106 79 20 36 107 104 306 315 330 354 9 5 10 2 348 348 329 302
176 170 168 168 162 159 151 148 147 151 162 184 174 168 142 143 164 161 152 147 143 138 136 135 119 117 123 67 15 31 105 165 217 323 325 344 353 5 358 352 348 346 339
172 168 167 162 163 161 158 156 148 146 153 140 134 141 137 101 146 159 156 154 152 151 151 137 128 131 138 155 160 96 72 59 97 206 303 325 334 330 334 333 335 343 345
170 167 163 165 172 164 160 159 161 159 155 150 160 167 169 156 169 172 164 164 165 168 175 172 163 162 168 167 172 175 168 173 193 197 256 296 308 305 312 313 325 336 339